User: anonymous   Login
Location: Unspecified
(0.0000°N, 0.0000°E)
Time: 07:44:01
(UTC+00:00)
Language:

ONEWEB-0666 - Orbit

View from above orbital plane
View from above orbital plane
View from above satellite
View from above satellite

Ground track
Ground track

The orbit is defined by the following mean orbital elements,

1 55826U          26145.38139193 +.00000000 +00000-0 -12158-2 0 00004
2 55826  87.9164 279.0215 0002091 119.0197 241.1146 13.20772200    02
Epoch (UTC): 25 May 2026 09:09:12
Eccentricity: 0.0002091
inclination: 87.9164°
perigee height: 1180 km
apogee height: 1183 km
right ascension of ascending node: 279.0215°
argument of perigee: 119.0197°
revolutions per day: 13.20772200
mean anomaly at epoch: 241.1146°

The dashed part of the orbit path shows where the satellite is in the earth's shadow,  

DLR